Regional Weather Roundup
Issued by NWS State College, PA

Home | Current Version | Previous Version | Text Only | Print | Product List | Glossary On
Versions: 1 2 3 4 5 6 7 8 9 10 11 12 13 14 15 16 17 18 19 20 21 22 23 24 25 26 27 28 29 30 31 32 33 34 35 36 37 38 39 40 41 42 43 44 45 46 47 48 49 50
000
ASUS41 KCTP 232010
RWRCTP

REGIONAL WEATHER ROUNDUP
NATIONAL WEATHER SERVICE STATE COLLEGE PA
400 PM EDT SAT JUL 23 2016

Note: "fair" indicates few or no clouds below 12,000 feet with no
significant weather and/or obstructions to visibility.

* = STATION THAT DOES NOT REPORT PRECIPITATION /E.G. RAIN...SNOW...ETC/
    THUNDER OR FOG.

PAZ002>004-007>009-013>016-020>023-029>032-232100-
WESTERN PENNSYLVANIA

CITY           SKY/WX    TMP DP  RH WIND       PRES   REMARKS
ERIE           SUNNY     87  64  46 VRB6      29.98F
MEADVILLE      SUNNY     86  60  41 N8G17     30.01F
FRANKLIN*      MOSUNNY   88  61  40 NW8       30.03S
NEW CASTLE     FAIR      92  59  33 NE8       29.99F
BEAVER COUNTY  MOSUNNY   91  66  43 N8        29.98F
BUTLER*        MOSUNNY   90  66  45 NW5       30.01S
PITTSBURGH INT PTSUNNY   81  70  69 W7        29.97F
PITTSBURGH     CLOUDY    78  68  71 SW13      29.98F
INDIANA*       MOSUNNY   91  63  38 N8G17     30.00F
LATROBE        TSTM      82  73  74 W16G24    30.01R
WASHINGTON CO* MOSUNNY   93  70  46 W7        29.99F HX  99
$$

PAZ004>006-010>012-017>019-024>028-033>037-041-042-045-046-049>053-232100-
CENTRAL PENNSYLVANIA

CITY           SKY/WX    TMP DP  RH WIND       PRES   REMARKS
BRADFORD       SUNNY     85  53  33 W15G23    30.02F
DUBOIS         MOSUNNY   90  56  31 NW16      30.00F
CLEARFIELD     MOSUNNY   93  54  26 N12       29.98F
JOHNSTOWN      LGT RAIN  77  66  68 NW7       30.04S
ALTOONA        PTSUNNY   87  66  49 W12       29.98S
STATE COLLEGE  MOSUNNY   93  55  27 W12G23    29.93F
WILLIAMSPORT   MOSUNNY   98  53  22 W8G17     29.85F HX  96
SELINSGROVE    MOSUNNY   97  60  29 NW14G20   29.88F HX  97
FT INDIANTOWN  SUNNY     97  58  27 W18G25    29.86F HX  96
CAPITAL CITY   PTSUNNY   97  64  33 N10       29.85F HX  99
HARRISBURG     PTSUNNY   93  71  48 NW7       29.85F THUNDER HX 100
YORK           SUNNY     93  72  50 SW12G20   29.87F HX 101
$$

PAZ038>040-043-044-047-048-054-055-060>062-067>071-232100-
EASTERN PENNSYLVANIA

CITY           SKY/WX    TMP DP  RH WIND       PRES   REMARKS
SCRANTON       SUNNY     95  53  24 W14G20    29.87F
MOUNT POCONO   MOSUNNY   87  32  14 W14G21    29.94F
ALLENTOWN      SUNNY     95  56  26 W14G22    29.87S
QUAKERTOWN*    CLEAR     97  59  28 CALM      29.88S HX  96
READING        MOSUNNY   97  61  30 NW16      29.84F HX  97
LANCASTER      PTSUNNY   95  67  39 NW8G17    29.85F HX  99
COATESVILLE    CLEAR     93  70  46 VRB7G13   29.89F HX  99
POTTSTOWN      PTSUNNY   93  66  40 MISG      29.86F HX  96
BLUE BELL      PTSUNNY   90  70  51 W5        29.84F HX  95
DOYLESTOWN     SUNNY     94  56  27 VRB7G18   29.85F
WILLOW GROVE   NOT AVBL
NORTH PHILA    MOSUNNY   95  68  41 W14       29.85F HX  99
PHILADELPHIA   MOSUNNY   96  68  39 W16G22    29.85F HX 101
$$



USA.gov is the U.S. government's official web portal to all federal, state and local government web resources and services.